Simultaneous Nadir Overpasses (SNOs) Predictions

Prediction of SNOs between FY3D and LANDSAT-8 Satellite Orbit:

Table of predicted SNOs for the next 14.0 days since TLE Epoch: 10/21/2023
Index Date (FY3D) Time (FY3D) Lat,Lon (FY3D) SZA (FY3D ) Date (LANDSAT-8) Time (LANDSAT-8) Lat,Lon (LANDSAT-8) SZA (LANDSAT-8 ) Distance(km) Time Diff (sec)
1 10/21/2023 21:02:56 -74.09, 44.79 95.12 10/21/2023 21:04:03 -74.02, 47.19 95.12 73.75 67
2 10/21/2023 21:53:30 73.49,-146.44 84.33 10/21/2023 21:53:39 73.47,-146.36 84.31 3.22 9
3 10/21/2023 22:44:13 -73.39, 21.11 95.76 10/21/2023 22:43:08 -73.40, 21.13 95.75 1.76 65
4 10/24/2023 12:29:58 74.12, -7.02 85.85 10/24/2023 12:31:05 74.02, -4.57 85.81 75.67 67
5 10/24/2023 13:20:30 -73.48, 161.87 94.75 10/24/2023 13:20:43 -73.48, 161.90 94.75 1.05 13
6 10/24/2023 14:11:15 73.42, -30.68 85.21 10/24/2023 14:10:10 73.40, -30.64 85.18 3.12 65
7 10/27/2023 03:57:02 -74.27, -59.11 93.11 10/27/2023 03:58:07 -74.15, -56.03 93.14 94.27 65
8 10/27/2023 04:47:32 73.48, 110.16 86.16 10/27/2023 04:47:45 73.49, 110.16 86.18 1.21 13
9 10/27/2023 05:38:16 -73.43, -82.41 93.88 10/27/2023 05:37:14 -73.43, -82.34 93.88 2.27 62
10 10/29/2023 19:24:03 74.24,-110.73 87.75 10/29/2023 19:25:08 74.17,-107.74 87.78 90.94 65
11 10/29/2023 20:14:33 -73.50, 58.41 92.94 10/29/2023 20:14:49 -73.49, 58.39 92.95 1.32 16
12 10/29/2023 21:05:18 73.44,-134.14 87.02 10/29/2023 21:04:15 73.45,-134.06 87.02 2.92 63
13 11/01/2023 10:51:05 -74.31,-162.64 91.32 11/01/2023 10:52:10 -74.23,-159.35 91.30 99.49 65
14 11/01/2023 11:41:35 73.52, 6.64 87.95 11/01/2023 11:41:49 73.51, 6.69 87.95 1.72 14
15 11/01/2023 12:32:18 -73.42, 174.19 92.14 11/01/2023 12:31:19 -73.41, 174.10 92.16 3.16 59
16 11/04/2023 02:18:05 74.30, 145.68 89.51 11/04/2023 02:19:10 74.17, 148.76 89.47 93.89 65



Historial Predications of SNOs between FY3D and LANDSAT-8
